Weather in Shuyskoe

Russia / Vologda Oblast     59°22′26″N   41°01′43″E
temp.,
°C
wind,
m/s
gust,
m/s
humid.,
%
clouds,
%
prec.,
mm/h
press.,
hPa
HPBL,
m
25 february, thu
thu2500:00−15s41094100 0.3 1024533
03:00−15s51095100 1.8 1020521
06:00−15s51095100 1.6 1014503
09:00−14sse4895100 3.3 1012433
12:00−12sse3693100 0.4 1010380
15:00−10sse2494100 0.8 1011328
18:00−13ese229696 0.1 101250
21:00−16se239792 0.1 101340
26 february, fri
fri2600:00−16sse249891 0.0 1012106
03:00−16sse379795 0.1 1011173
06:00−14se4895100 0.1 1008243
09:00−13se51095100 1.4 1004288
12:00−11se51295100 4.3 1000402
15:00−10se51095100 9.1 997359
18:00−10ese4895100 3.1 994265
21:00−11e4795100 4.1 995256
27 february, sat
sat2700:00−12ne4995100 0.9 996399
03:00−13ne4994100 1.5 1000478
06:00−14nne4993100 0.2 1002493
09:00−15nne4893100 0.2 1006429
12:00−12nne3691100 0.0 1007504
15:00−11n3691100 0.1 1009528
18:00−14n2596100 0.0 101193
21:00−16n239782 0.1 101351
28 february, sun
sun2800:00−17n229736 0.0 101427
03:00−16nnw229757 0.1 101536
06:00−15nnw129776 0.1 101522
09:00−13n239679 0.2 1017195
12:00−9n249491 0.1 1017407
15:00−6nnw249395 0.1 1018437
18:00−6nw249699 0.1 1018205
21:00−7nw1297100 0.3 102036
1 march, mon
mon100:00−8nw119798 0.2 102121
03:00−8w119798 0.3 102125
06:00−6wsw2397100 0.1 1022116
09:00−6wsw379798 0.1 1021319
12:00−3sw479489 0.0 1020438
15:00−2sw599594 0.1 1017520
18:00−1wsw51295100 0.3 1014703
21:00+1wsw51298100 0.9 1011762